FENGYUN 1C DEB

Satellite information

Favourite Embed

Satellite Type and Status

DEBRISIN ORBIT

Key statistics

Satellite FENGYUN 1C DEB at a glance.

Uptime

9554

Days in orbit

Revolutions

≈ 14.6

Per day

Orbit

SSO

Sun Synchronous Orbit

Inclination

98.6

Latest

Satellite identification and parameters

Extended collection of information and parameters for FENGYUN 1C DEB.

Object identification

Identified? True

Debris? True

Object name: FENGYUN 1C DEB

International designator: 1999-025BWX

Object number (NORAD): 31508

Object ID (CCSDS): 31508

Country: PEOPLES REPUBLIC OF CHINA (PRC)

Current information (Y/N): Y

RCS size: SMALL

Orbital parameters

Period: 98.807 minutes

Inclination: 98.6247 deg

SMA: 7079.758 km

Apoapsis: 728.934 km

Periapsis: 674.311 km

RAAN: 288.4717 deg

Eccentricy: 0.0038577

Argument of periapsis: 102.9064 deg

Mean anomaly: 257.6446 deg

Mean motion: 14.57387876 rev/day

Mean motion (dot): 0.00009354 rev/day2

B* drag term: 0.002051 1/REarth

Two-line elements (TLE)

Creation date: July 5, 2025, 5:45 p.m.

Reference frame: TEME

Reference center: EARTH

Epoch: July 5, 2025, 6:07 a.m. UTC

TLE line 0: 0 FENGYUN 1C DEB

TLE line 1: 1 31508U 99025BWX 25186.25495994 .00009354 00000-0 20510-2 0 9992

TLE line 2: 2 31508 98.6247 288.4717 0038577 102.9064 257.6446 14.57387876945833

Live tracking on map

Real-time ground track for satellite FENGYUN 1C DEB.

In-orbit conjunctions

A list of the most updated potential collisions computed for object FENGYUN 1C DEB.

Target Orbit TCA Probability of collision Miss distance Type
GEOSAT SSO 2024-11-12 13:42:37 0.0001423216 58.0 (m) PAYLOAD

Associated space launch

Chinese polar orbiting meteorological satellite

FENGYUN 1C DEB was lifted into orbit during the mission ‘Long March 4B | Feng Yun 1C’, on board a Long March 4B space rocket.

The launch took place on May 10, 1999, 1:33 a.m. from Launch Complex 7.

For more information about the launch, click the button.

Launch to space Long March 4B | Feng Yun 1C
Long March 4B | Feng Yun 1C

Agency: N/A

Status: Launch Successful

Launch date: May 10, 1999, 1:33 a.m. UTC

Rocket: Long March 4B

Launch pad: Launch Complex 7

Location: Taiyuan Satellite Launch Center, People's Republic of China

...

Latest news about this satellite

There are no fresh news available about this satellite. Check back as we update our databases every day.


Newsletter sign-up

Weekly statistics, charts and insights to help you stay on top of the space industry.